TOM12W EGGW-GCTS

Flight info

Callsign TOM12W
Flight time N/A
Altitude 35000
Route RODNI N27 ICTAM Q63 CPT Y321 PEPIS Q41 SAM M195 LORKU DCT LOTEE DCT PINEK DCT LAMDI DCT VABEM DCT GALPA DCT EKNOT DCT ORTIS
Aircraft B738/M-SDE2E3FGHIRWXY/LB1

Departure

Time 2026-05-01 12:17
Airport London Luton Airport (EGGW)

Arrival

Time N/A
Airport Tenerife Sur Airport (GCTS)
Time Latitude Longitude Altitude Speed Heading
2026-05-01 11:44 51.88153 -0.37431 515 ft 0 kts 161°
2026-05-01 12:04 51.88161 -0.37435 515 ft 4 kts 161°
2026-05-01 12:04 51.88182 -0.37446 515 ft 3 kts 162°
2026-05-01 12:04 51.88202 -0.37448 515 ft 4 kts 229°
2026-05-01 12:05 51.88213 -0.37413 515 ft 4 kts 251°
2026-05-01 12:05 51.88215 -0.37401 515 ft 0 kts 251°
2026-05-01 12:08 51.88215 -0.37402 515 ft 1 kts 251°
2026-05-01 12:09 51.88203 -0.37480 515 ft 11 kts 271°
2026-05-01 12:09 51.88211 -0.37562 515 ft 1 kts 268°
2026-05-01 12:09 51.88199 -0.37610 517 ft 7 kts 241°
2026-05-01 12:09 51.88190 -0.37638 519 ft 0 kts 240°
2026-05-01 12:10 51.88170 -0.37694 522 ft 10 kts 240°
2026-05-01 12:10 51.88121 -0.37799 522 ft 13 kts 225°
2026-05-01 12:11 51.87963 -0.37996 522 ft 16 kts 206°
2026-05-01 12:11 51.87850 -0.37990 522 ft 17 kts 152°
2026-05-01 12:11 51.87777 -0.37837 522 ft 17 kts 115°
2026-05-01 12:12 51.87726 -0.37661 519 ft 18 kts 115°
2026-05-01 12:12 51.87654 -0.37486 521 ft 19 kts 147°
2026-05-01 12:12 51.87530 -0.37481 520 ft 18 kts 207°
2026-05-01 12:12 51.87483 -0.37662 522 ft 18 kts 255°
2026-05-01 12:13 51.87450 -0.37849 521 ft 17 kts 254°
2026-05-01 12:13 51.87419 -0.38005 523 ft 10 kts 240°
2026-05-01 12:13 51.87366 -0.38068 522 ft 8 kts 205°
2026-05-01 12:13 51.87359 -0.38074 522 ft 0 kts 205°
2026-05-01 12:15 51.87345 -0.38085 521 ft 7 kts 206°
2026-05-01 12:15 51.87289 -0.38117 521 ft 9 kts 188°
2026-05-01 12:15 51.87247 -0.38094 523 ft 7 kts 88°
2026-05-01 12:16 51.87258 -0.38032 523 ft 24 kts 75°
2026-05-01 12:16 51.87371 -0.37373 521 ft 96 kts 74°
2026-05-01 12:16 51.87611 -0.35986 516 ft 158 kts 74°
2026-05-01 12:16 51.87921 -0.34145 996 ft 175 kts 78°
2026-05-01 12:17 51.88267 -0.32194 1747 ft 186 kts 77°
2026-05-01 12:17 51.88647 -0.30083 2158 ft 208 kts 78°
2026-05-01 12:17 51.89075 -0.27697 2378 ft 232 kts 76°
2026-05-01 12:17 51.89256 -0.25040 2521 ft 249 kts 108°
2026-05-01 12:18 51.88302 -0.22781 3114 ft 248 kts 148°
2026-05-01 12:18 51.86675 -0.21991 3766 ft 246 kts 184°
2026-05-01 12:18 51.85065 -0.22892 3968 ft 252 kts 218°
2026-05-01 12:18 51.84097 -0.25219 4008 ft 256 kts 252°
2026-05-01 12:19 51.83755 -0.28057 3988 ft 264 kts 257°
2026-05-01 12:19 51.83413 -0.30997 3978 ft 262 kts 255°
2026-05-01 12:19 51.83019 -0.33844 3993 ft 259 kts 253°
2026-05-01 12:19 51.82577 -0.36657 4007 ft 257 kts 252°
2026-05-01 12:20 51.82111 -0.39443 4015 ft 256 kts 251°
2026-05-01 12:20 51.81635 -0.42228 4257 ft 259 kts 252°
2026-05-01 12:20 51.81161 -0.45057 5054 ft 261 kts 253°
2026-05-01 12:20 51.80732 -0.47890 5799 ft 264 kts 252°
2026-05-01 12:21 51.80294 -0.50814 6470 ft 269 kts 252°
2026-05-01 12:21 51.79851 -0.53748 6911 ft 270 kts 252°
2026-05-01 12:21 51.79401 -0.56699 7143 ft 272 kts 252°
2026-05-01 12:21 51.78947 -0.59679 7169 ft 269 kts 251°
2026-05-01 12:22 51.78501 -0.62591 7179 ft 272 kts 251°
2026-05-01 12:22 51.78044 -0.65577 7381 ft 276 kts 252°
2026-05-01 12:22 51.77582 -0.68595 8079 ft 276 kts 252°
2026-05-01 12:22 51.77120 -0.71604 8825 ft 277 kts 252°
2026-05-01 12:23 51.76650 -0.74645 9481 ft 282 kts 252°
2026-05-01 12:23 51.76159 -0.77718 10168 ft 283 kts 247°
2026-05-01 12:23 51.75176 -0.80455 10570 ft 288 kts 224°
2026-05-01 12:23 51.73721 -0.82828 10733 ft 308 kts 221°
2026-05-01 12:24 51.72153 -0.85337 10887 ft 328 kts 222°
2026-05-01 12:24 51.70484 -0.88008 11079 ft 346 kts 222°
2026-05-01 12:24 51.68726 -0.90813 11522 ft 354 kts 222°
2026-05-01 12:24 51.66974 -0.93616 12153 ft 356 kts 222°
2026-05-01 12:25 51.65236 -0.96399 12852 ft 357 kts 222°
2026-05-01 12:25 51.61638 -1.02144 14033 ft 366 kts 222°
2026-05-01 12:25 51.59848 -1.04986 14615 ft 367 kts 221°
2026-05-01 12:26 51.57997 -1.07917 15172 ft 370 kts 222°
2026-05-01 12:26 51.54327 -1.13724 16238 ft 376 kts 221°
2026-05-01 12:26 51.52458 -1.16677 16787 ft 379 kts 222°
2026-05-01 12:27 51.50496 -1.19507 17288 ft 379 kts 212°
2026-05-01 12:27 51.45614 -1.22401 18358 ft 378 kts 185°
2026-05-01 12:28 51.40312 -1.22738 19231 ft 384 kts 182°
2026-05-01 12:28 51.37594 -1.22908 19658 ft 387 kts 182°
2026-05-01 12:28 51.32183 -1.23326 20536 ft 392 kts 182°
2026-05-01 12:29 51.29489 -1.23559 20914 ft 395 kts 182°
2026-05-01 12:29 51.26733 -1.23799 21327 ft 398 kts 182°
2026-05-01 12:29 51.21172 -1.24278 22155 ft 402 kts 183°
2026-05-01 12:30 51.15652 -1.25984 22923 ft 408 kts 194°
2026-05-01 12:30 51.12901 -1.27188 23337 ft 411 kts 194°
2026-05-01 12:30 51.10137 -1.28380 23700 ft 413 kts 194°
2026-05-01 12:31 51.07346 -1.29565 24023 ft 416 kts 193°
2026-05-01 12:31 51.04545 -1.30738 24339 ft 418 kts 193°
2026-05-01 12:31 51.01725 -1.31913 24644 ft 420 kts 193°
2026-05-01 12:31 50.98896 -1.33088 24957 ft 422 kts 193°
2026-05-01 12:32 50.96087 -1.34487 25244 ft 425 kts 200°
2026-05-01 12:32 50.90908 -1.39136 25837 ft 432 kts 212°
2026-05-01 12:32 50.88413 -1.41794 26126 ft 433 kts 212°
2026-05-01 12:33 50.85902 -1.44458 26416 ft 435 kts 211°
2026-05-01 12:33 50.83379 -1.47116 26662 ft 437 kts 211°
2026-05-01 12:33 50.80832 -1.49779 26914 ft 440 kts 211°
2026-05-01 12:33 50.78271 -1.52444 27181 ft 441 kts 211°
2026-05-01 12:34 50.75702 -1.55109 27448 ft 443 kts 211°
2026-05-01 12:34 50.73122 -1.57779 27705 ft 445 kts 211°
2026-05-01 12:34 50.70529 -1.60460 27956 ft 446 kts 211°
2026-05-01 12:34 50.67931 -1.63141 28317 ft 445 kts 211°
2026-05-01 12:35 50.65347 -1.65807 28721 ft 443 kts 211°
2026-05-01 12:35 50.62770 -1.68463 29090 ft 442 kts 211°
2026-05-01 12:35 50.60191 -1.71115 29336 ft 444 kts 211°
2026-05-01 12:35 50.57598 -1.73780 29634 ft 445 kts 211°
2026-05-01 12:36 50.55012 -1.76434 30016 ft 443 kts 211°
2026-05-01 12:36 50.52434 -1.79074 30375 ft 442 kts 211°
2026-05-01 12:36 50.49860 -1.81697 30649 ft 441 kts 211°
2026-05-01 12:36 50.47283 -1.84311 30896 ft 441 kts 211°
2026-05-01 12:37 50.44709 -1.86918 31279 ft 438 kts 211°
2026-05-01 12:37 50.42170 -1.89488 31716 ft 433 kts 211°
2026-05-01 12:37 50.40457 -1.91220 31895 ft 433 kts 211°
2026-05-01 12:37 50.37945 -1.93758 31981 ft 437 kts 211°
2026-05-01 12:38 50.35351 -1.96376 32127 ft 439 kts 211°
2026-05-01 12:38 50.32784 -1.98966 32403 ft 438 kts 211°
2026-05-01 12:38 50.30226 -2.01543 32716 ft 436 kts 211°
2026-05-01 12:38 50.27673 -2.04112 32958 ft 436 kts 211°
2026-05-01 12:39 50.25122 -2.06674 33150 ft 437 kts 211°
2026-05-01 12:39 50.22558 -2.09224 33370 ft 437 kts 211°
2026-05-01 12:39 50.19987 -2.11738 33627 ft 436 kts 211°
2026-05-01 12:39 50.17415 -2.14234 33852 ft 435 kts 211°
2026-05-01 12:40 50.14839 -2.16730 34023 ft 436 kts 211°
2026-05-01 12:40 50.12259 -2.19232 34202 ft 437 kts 211°
2026-05-01 12:40 50.09679 -2.21735 34405 ft 436 kts 211°
2026-05-01 12:40 50.07144 -2.24194 34619 ft 435 kts 211°
2026-05-01 12:41 50.04578 -2.26682 34833 ft 434 kts 211°
2026-05-01 12:41 50.02023 -2.29157 35076 ft 431 kts 211°
2026-05-01 12:41 49.99478 -2.31619 35208 ft 432 kts 211°
2026-05-01 12:41 49.96924 -2.34086 35222 ft 432 kts 211°
2026-05-01 12:42 49.91737 -2.38799 35231 ft 433 kts 206°
2026-05-01 12:42 49.86256 -2.42813 35239 ft 438 kts 204°
2026-05-01 12:43 49.80689 -2.46761 35235 ft 441 kts 204°
2026-05-01 12:43 49.75110 -2.50764 35239 ft 443 kts 205°
2026-05-01 12:44 49.69522 -2.54809 35228 ft 443 kts 205°
2026-05-01 12:45 49.58364 -2.62892 35213 ft 442 kts 205°
2026-05-01 12:45 49.52799 -2.66909 35212 ft 441 kts 205°
2026-05-01 12:46 49.47260 -2.70895 35215 ft 437 kts 204°
2026-05-01 12:46 49.41803 -2.74812 35205 ft 430 kts 204°
2026-05-01 12:47 49.36386 -2.78691 35216 ft 429 kts 204°
2026-05-01 12:47 49.30980 -2.82552 35233 ft 428 kts 204°
2026-05-01 12:48 49.25581 -2.86399 35230 ft 429 kts 204°
2026-05-01 12:48 49.20167 -2.90248 35236 ft 429 kts 204°
2026-05-01 12:49 49.14771 -2.94074 35236 ft 431 kts 204°
2026-05-01 12:49 49.09317 -2.97932 35233 ft 433 kts 204°
2026-05-01 12:50 49.03841 -3.01797 35223 ft 435 kts 205°
2026-05-01 12:50 48.98342 -3.05667 35219 ft 436 kts 205°
2026-05-01 12:51 48.92837 -3.09534 35231 ft 436 kts 204°
2026-05-01 12:52 48.84595 -3.15304 35212 ft 434 kts 204°
2026-05-01 12:52 48.76389 -3.21028 35207 ft 432 kts 204°
2026-05-01 12:53 48.68217 -3.26709 35212 ft 430 kts 204°
2026-05-01 12:54 48.62778 -3.30478 35211 ft 430 kts 204°
2026-05-01 12:54 48.54629 -3.36107 35211 ft 429 kts 204°
2026-05-01 12:55 48.46489 -3.41712 35198 ft 429 kts 204°
2026-05-01 12:56 48.41060 -3.45439 35221 ft 429 kts 204°
2026-05-01 12:56 48.35667 -3.49132 35195 ft 429 kts 205°
2026-05-01 12:57 48.30232 -3.52845 35191 ft 429 kts 205°
2026-05-01 12:57 48.22084 -3.58396 35191 ft 429 kts 205°
2026-05-01 12:58 48.16649 -3.62088 35184 ft 429 kts 205°
2026-05-01 12:59 48.08500 -3.67606 35194 ft 429 kts 205°
2026-05-01 12:59 48.00344 -3.73111 35197 ft 429 kts 205°
2026-05-01 13:00 47.92176 -3.78602 35198 ft 429 kts 205°
2026-05-01 13:01 47.84007 -3.84079 35209 ft 429 kts 206°
2026-05-01 13:02 47.75858 -3.89521 35204 ft 427 kts 205°
2026-05-01 13:07 47.16518 -4.28598 35225 ft 423 kts 206°
2026-05-01 13:08 47.11142 -4.32091 35228 ft 422 kts 206°
2026-05-01 13:08 47.05770 -4.35573 35225 ft 422 kts 206°
2026-05-01 13:09 47.00401 -4.39046 35232 ft 422 kts 205°
2026-05-01 13:09 46.95032 -4.42512 35232 ft 422 kts 205°
2026-05-01 13:10 46.89653 -4.45975 35233 ft 422 kts 205°
2026-05-01 13:10 46.84273 -4.49433 35229 ft 423 kts 205°
2026-05-01 13:11 46.78885 -4.52887 35229 ft 423 kts 205°
2026-05-01 13:11 46.73492 -4.56337 35226 ft 424 kts 205°
2026-05-01 13:12 46.68092 -4.59784 35231 ft 424 kts 205°
2026-05-01 13:12 46.62686 -4.63227 35223 ft 424 kts 205°
2026-05-01 13:13 46.57273 -4.66667 35226 ft 424 kts 205°
2026-05-01 13:13 46.51859 -4.70101 35227 ft 424 kts 205°
2026-05-01 13:14 46.46447 -4.73526 35208 ft 424 kts 205°
2026-05-01 13:14 46.41030 -4.76946 35221 ft 424 kts 205°
2026-05-01 13:15 46.35619 -4.80355 35220 ft 424 kts 205°
2026-05-01 13:15 46.30211 -4.83755 35226 ft 423 kts 205°
2026-05-01 13:16 46.24819 -4.87137 35204 ft 422 kts 205°
2026-05-01 13:16 46.19438 -4.90505 35210 ft 421 kts 205°
2026-05-01 13:17 46.08742 -4.97180 35215 ft 420 kts 205°
2026-05-01 13:18 46.00699 -5.02180 35213 ft 419 kts 205°
2026-05-01 13:18 45.95340 -5.05502 35210 ft 420 kts 205°
2026-05-01 13:19 45.89971 -5.08824 35205 ft 420 kts 205°
2026-05-01 13:20 45.81899 -5.13806 35217 ft 421 kts 204°
2026-05-01 13:20 45.76511 -5.17122 35211 ft 421 kts 204°
2026-05-01 13:21 45.68429 -5.22082 35206 ft 421 kts 204°
2026-05-01 13:21 45.63043 -5.25380 35185 ft 421 kts 204°
2026-05-01 13:22 45.57658 -5.28670 35195 ft 421 kts 204°
2026-05-01 13:22 45.52275 -5.31952 35205 ft 421 kts 204°
2026-05-01 13:23 45.46880 -5.35233 35204 ft 421 kts 204°
2026-05-01 13:23 45.41485 -5.38509 35195 ft 421 kts 204°
2026-05-01 13:24 45.36089 -5.41778 35198 ft 422 kts 204°
2026-05-01 13:25 45.28028 -5.46649 35203 ft 421 kts 204°
2026-05-01 13:25 45.22640 -5.49897 35179 ft 420 kts 204°
2026-05-01 13:26 45.17260 -5.53133 35194 ft 420 kts 204°
2026-05-01 13:26 45.12754 -5.55838 35190 ft 420 kts 204°
2026-05-01 13:27 45.07378 -5.59060 35187 ft 419 kts 204°
2026-05-01 13:27 44.99352 -5.63857 35189 ft 419 kts 204°
2026-05-01 13:28 44.91288 -5.68663 35181 ft 420 kts 204°
2026-05-01 13:29 44.80516 -5.75059 35190 ft 420 kts 203°
2026-05-01 13:31 44.64495 -5.85048 35172 ft 420 kts 214°
2026-05-01 13:32 44.52785 -5.97313 35167 ft 420 kts 216°
2026-05-01 13:33 44.41028 -6.09479 35188 ft 420 kts 216°
2026-05-01 13:34 44.31604 -6.19178 35160 ft 420 kts 216°
2026-05-01 13:35 44.24538 -6.26425 35146 ft 420 kts 216°
2026-05-01 13:36 44.17469 -6.33652 35155 ft 420 kts 216°
2026-05-01 13:36 44.10399 -6.40860 35146 ft 420 kts 216°
2026-05-01 13:37 44.05679 -6.45658 35154 ft 420 kts 216°
2026-05-01 13:37 44.00961 -6.50446 35155 ft 420 kts 216°
2026-05-01 13:38 43.93876 -6.57617 35150 ft 420 kts 216°
2026-05-01 13:39 43.89153 -6.62386 35149 ft 420 kts 216°
2026-05-01 13:39 43.84426 -6.67149 35151 ft 420 kts 216°
2026-05-01 13:40 43.79731 -6.71870 35139 ft 420 kts 216°
2026-05-01 13:40 43.75005 -6.76614 35153 ft 420 kts 216°
2026-05-01 13:41 43.70274 -6.81352 35150 ft 420 kts 216°
2026-05-01 13:41 43.65536 -6.86089 35165 ft 420 kts 216°
2026-05-01 13:42 43.60794 -6.90820 35133 ft 420 kts 216°
2026-05-01 13:42 43.56056 -6.95536 35146 ft 420 kts 216°
2026-05-01 13:43 43.51314 -7.00249 35132 ft 420 kts 216°
2026-05-01 13:43 43.46566 -7.04957 35137 ft 421 kts 216°
2026-05-01 13:44 43.41815 -7.09659 35147 ft 421 kts 216°
2026-05-01 13:44 43.37066 -7.14350 35138 ft 420 kts 216°
2026-05-01 13:45 43.32311 -7.19039 35136 ft 421 kts 216°
2026-05-01 13:45 43.27555 -7.23717 35154 ft 420 kts 216°
2026-05-01 13:46 43.22799 -7.28389 35140 ft 420 kts 215°
2026-05-01 13:46 43.18050 -7.33043 35113 ft 420 kts 216°
2026-05-01 13:47 43.13303 -7.37687 35118 ft 419 kts 216°
2026-05-01 13:47 43.08595 -7.42283 35119 ft 418 kts 216°
2026-05-01 13:48 43.03853 -7.46903 35125 ft 418 kts 216°
2026-05-01 13:48 42.99113 -7.51512 35125 ft 418 kts 216°
2026-05-01 13:49 42.94369 -7.56117 35117 ft 418 kts 216°
2026-05-01 13:49 42.89632 -7.60706 35151 ft 418 kts 216°
2026-05-01 13:50 42.84894 -7.65287 35128 ft 417 kts 216°
2026-05-01 13:50 42.80165 -7.69851 35123 ft 416 kts 216°
2026-05-01 13:51 42.75446 -7.74396 35108 ft 415 kts 217°
2026-05-01 13:51 42.70740 -7.78920 35112 ft 414 kts 217°
2026-05-01 13:52 42.66044 -7.83426 35124 ft 413 kts 217°
2026-05-01 13:52 42.61352 -7.87920 35123 ft 412 kts 217°
2026-05-01 13:53 42.56671 -7.92395 35121 ft 412 kts 216°
2026-05-01 13:53 42.49675 -7.99068 35131 ft 412 kts 216°
2026-05-01 13:54 42.44982 -8.03533 35126 ft 412 kts 216°
2026-05-01 13:54 42.40285 -8.07994 35133 ft 413 kts 216°
2026-05-01 13:55 42.35584 -8.12451 35131 ft 413 kts 217°
2026-05-01 13:55 42.30879 -8.16902 35124 ft 413 kts 217°
2026-05-01 13:56 42.26171 -8.21348 35130 ft 413 kts 217°
2026-05-01 13:56 42.21462 -8.25789 35122 ft 413 kts 217°
2026-05-01 13:57 42.17545 -8.29475 35145 ft 413 kts 217°
2026-05-01 13:57 42.12033 -8.34653 35167 ft 413 kts 217°
2026-05-01 13:58 42.07322 -8.39069 35132 ft 412 kts 217°
2026-05-01 13:58 42.02657 -8.43435 35134 ft 411 kts 217°
2026-05-01 13:59 41.97967 -8.47816 35128 ft 410 kts 217°
2026-05-01 13:59 41.93289 -8.52179 35136 ft 409 kts 217°
2026-05-01 14:00 41.88614 -8.56531 35144 ft 409 kts 217°
2026-05-01 14:00 41.83946 -8.60872 35145 ft 408 kts 218°
2026-05-01 14:01 41.79291 -8.65234 35146 ft 408 kts 218°
2026-05-01 14:01 41.74640 -8.69596 35146 ft 408 kts 218°
2026-05-01 14:02 41.69989 -8.73949 35147 ft 408 kts 218°
2026-05-01 14:02 41.65342 -8.78289 35154 ft 407 kts 218°
2026-05-01 14:03 41.60711 -8.82605 35150 ft 405 kts 218°
2026-05-01 14:03 41.56097 -8.86898 35155 ft 404 kts 218°
2026-05-01 14:04 41.51492 -8.91174 35153 ft 403 kts 218°
2026-05-01 14:04 41.47670 -8.94718 35160 ft 402 kts 218°
2026-05-01 14:05 41.42304 -8.99685 35147 ft 401 kts 218°
2026-05-01 14:05 41.37719 -9.03921 35160 ft 401 kts 218°
2026-05-01 14:06 41.33141 -9.08143 35158 ft 400 kts 218°
2026-05-01 14:06 41.28591 -9.12331 35168 ft 400 kts 218°
2026-05-01 14:07 41.24014 -9.16537 35159 ft 400 kts 218°
2026-05-01 14:08 41.17159 -9.22823 35152 ft 399 kts 219°
2026-05-01 14:08 41.12598 -9.26996 35157 ft 398 kts 219°
2026-05-01 14:09 41.08044 -9.31157 35164 ft 397 kts 219°
2026-05-01 14:09 41.03493 -9.35306 35163 ft 397 kts 219°
2026-05-01 14:10 40.98942 -9.39450 35162 ft 397 kts 219°
2026-05-01 14:10 40.94394 -9.43582 35154 ft 396 kts 219°
2026-05-01 14:11 40.89854 -9.47701 35175 ft 395 kts 219°
2026-05-01 14:11 40.83059 -9.53853 35159 ft 394 kts 219°
2026-05-01 14:12 40.78539 -9.57936 35159 ft 393 kts 219°
2026-05-01 14:12 40.74025 -9.62007 35163 ft 393 kts 219°
2026-05-01 14:13 40.70276 -9.65384 35152 ft 392 kts 219°
2026-05-01 14:13 40.65010 -9.70118 35163 ft 392 kts 219°
2026-05-01 14:14 40.60507 -9.74159 35160 ft 392 kts 219°
2026-05-01 14:14 40.56003 -9.78195 35161 ft 392 kts 219°
2026-05-01 14:15 40.51527 -9.82198 35162 ft 392 kts 219°
2026-05-01 14:15 40.47015 -9.86228 35147 ft 392 kts 219°
2026-05-01 14:16 40.42500 -9.90252 35155 ft 392 kts 219°
2026-05-01 14:16 40.38722 -9.93615 35162 ft 392 kts 219°
2026-05-01 14:17 40.34209 -9.97627 35161 ft 392 kts 219°
2026-05-01 14:17 40.29695 -10.01632 35160 ft 392 kts 219°
2026-05-01 14:18 40.25179 -10.05632 35165 ft 392 kts 219°
2026-05-01 14:18 40.20662 -10.09627 35163 ft 392 kts 219°
2026-05-01 14:19 40.16144 -10.13617 35160 ft 392 kts 219°
2026-05-01 14:19 40.11625 -10.17601 35160 ft 392 kts 219°
2026-05-01 14:20 40.04842 -10.23568 35169 ft 392 kts 218°
2026-05-01 14:21 40.00325 -10.27533 35143 ft 391 kts 219°
2026-05-01 14:21 39.95810 -10.31490 35155 ft 391 kts 219°
2026-05-01 14:22 39.89044 -10.37410 35160 ft 391 kts 218°
2026-05-01 14:22 39.84563 -10.41321 35160 ft 391 kts 218°
2026-05-01 14:23 39.80049 -10.45256 35160 ft 391 kts 218°
2026-05-01 14:23 39.75534 -10.49185 35155 ft 390 kts 219°
2026-05-01 14:24 39.71023 -10.53104 35159 ft 390 kts 219°
2026-05-01 14:24 39.66509 -10.57021 35160 ft 390 kts 219°
2026-05-01 14:25 39.61986 -10.60938 35165 ft 391 kts 218°
2026-05-01 14:25 39.57460 -10.64852 35157 ft 391 kts 218°
2026-05-01 14:26 39.50666 -10.70714 35160 ft 391 kts 218°
2026-05-01 14:27 39.46139 -10.74613 35161 ft 391 kts 218°
2026-05-01 14:27 39.41609 -10.78509 35158 ft 391 kts 218°
2026-05-01 14:28 39.34799 -10.84354 35158 ft 392 kts 218°
2026-05-01 14:28 39.30250 -10.88251 35154 ft 392 kts 218°
2026-05-01 14:29 39.25700 -10.92143 35147 ft 392 kts 218°
2026-05-01 14:30 39.16662 -11.00041 35153 ft 392 kts 220°
2026-05-01 14:31 39.10043 -11.06237 35150 ft 392 kts 220°
2026-05-01 14:31 39.05621 -11.10353 35151 ft 392 kts 220°
2026-05-01 14:32 39.01191 -11.14452 35147 ft 392 kts 220°
2026-05-01 14:32 38.96756 -11.18541 35153 ft 393 kts 220°
2026-05-01 14:33 38.92320 -11.22625 35150 ft 398 kts 220°
2026-05-01 14:33 38.87800 -11.26779 35152 ft 401 kts 220°
2026-05-01 14:34 38.83249 -11.30952 35151 ft 403 kts 219°
2026-05-01 14:34 38.78685 -11.35131 35127 ft 403 kts 219°
2026-05-01 14:35 38.74123 -11.39300 35139 ft 403 kts 219°
2026-05-01 14:35 38.69563 -11.43463 35149 ft 402 kts 219°
2026-05-01 14:36 38.65007 -11.47614 35149 ft 402 kts 219°
2026-05-01 14:36 38.60457 -11.51755 35149 ft 401 kts 219°
2026-05-01 14:37 38.55914 -11.55882 35155 ft 400 kts 219°
2026-05-01 14:37 38.51373 -11.60001 35146 ft 400 kts 220°
2026-05-01 14:38 38.46838 -11.64108 35151 ft 400 kts 220°
2026-05-01 14:38 38.42300 -11.68212 35149 ft 400 kts 220°
2026-05-01 14:39 38.37764 -11.72307 35149 ft 400 kts 219°
2026-05-01 14:39 38.33225 -11.76398 35147 ft 400 kts 219°
2026-05-01 14:40 38.28687 -11.80482 35118 ft 400 kts 220°
2026-05-01 14:40 38.24148 -11.84561 35140 ft 400 kts 220°
2026-05-01 14:41 38.19602 -11.88639 35151 ft 400 kts 220°
2026-05-01 14:41 38.15051 -11.92716 35144 ft 400 kts 220°
2026-05-01 14:42 38.10493 -11.96793 35148 ft 401 kts 220°
2026-05-01 14:42 38.05934 -12.00864 35146 ft 401 kts 220°
2026-05-01 14:43 38.01399 -12.04906 35148 ft 401 kts 220°
2026-05-01 14:43 37.96836 -12.08969 35146 ft 401 kts 220°
2026-05-01 14:44 37.92269 -12.13028 35146 ft 401 kts 220°
2026-05-01 14:44 37.85416 -12.19107 35144 ft 401 kts 220°
2026-05-01 14:45 37.78561 -12.25174 35142 ft 401 kts 220°
2026-05-01 14:46 37.73989 -12.29213 35144 ft 401 kts 220°
2026-05-01 14:46 37.67130 -12.35261 35144 ft 401 kts 220°
2026-05-01 14:47 37.62557 -12.39285 35145 ft 401 kts 220°
2026-05-01 14:48 37.55693 -12.45314 35146 ft 400 kts 219°
2026-05-01 14:48 37.48847 -12.51312 35134 ft 399 kts 220°
2026-05-01 14:49 37.39727 -12.59284 35138 ft 399 kts 219°
2026-05-01 14:50 37.30622 -12.67218 35141 ft 400 kts 219°
2026-05-01 14:51 37.23764 -12.73178 35144 ft 399 kts 219°
2026-05-01 14:52 37.16871 -12.79155 35143 ft 400 kts 219°
2026-05-01 14:53 37.10000 -12.85099 35146 ft 400 kts 219°
2026-05-01 14:53 37.05450 -12.89028 35133 ft 400 kts 219°
2026-05-01 14:54 37.00873 -12.92975 35135 ft 399 kts 219°
2026-05-01 14:54 36.96301 -12.96911 35131 ft 399 kts 219°
2026-05-01 14:55 36.91724 -13.00846 35142 ft 399 kts 219°
2026-05-01 14:55 36.87143 -13.04779 35140 ft 400 kts 219°
2026-05-01 14:56 36.82555 -13.08712 35140 ft 400 kts 219°
2026-05-01 14:56 36.77963 -13.12643 35139 ft 400 kts 219°
2026-05-01 14:57 36.73368 -13.16570 35107 ft 400 kts 219°
2026-05-01 14:57 36.66478 -13.22447 35137 ft 400 kts 219°
2026-05-01 14:58 36.61885 -13.26360 35136 ft 400 kts 219°
2026-05-01 14:58 36.57288 -13.30270 35138 ft 400 kts 219°
2026-05-01 14:59 36.52576 -13.33986 35140 ft 403 kts 214°
2026-05-01 14:59 36.47625 -13.37298 35113 ft 404 kts 214°
2026-05-01 15:00 36.40179 -13.42225 35137 ft 404 kts 214°
2026-05-01 15:01 36.35225 -13.45530 35142 ft 405 kts 214°
2026-05-01 15:01 36.30301 -13.48826 35140 ft 405 kts 214°
2026-05-01 15:02 36.25342 -13.52145 35136 ft 405 kts 214°
2026-05-01 15:02 36.20382 -13.55459 35118 ft 405 kts 214°
2026-05-01 15:03 36.15418 -13.58772 35135 ft 405 kts 214°
2026-05-01 15:03 36.11257 -13.61545 35140 ft 406 kts 214°
2026-05-01 15:04 36.06284 -13.64855 35137 ft 406 kts 214°
2026-05-01 15:04 36.01343 -13.68139 35139 ft 406 kts 214°
2026-05-01 15:05 35.96365 -13.71442 35139 ft 406 kts 214°
2026-05-01 15:05 35.91390 -13.74738 35133 ft 406 kts 215°
2026-05-01 15:06 35.86405 -13.78037 35141 ft 407 kts 215°
2026-05-01 15:06 35.81412 -13.81337 35136 ft 407 kts 215°
2026-05-01 15:07 35.76414 -13.84634 35134 ft 408 kts 215°
2026-05-01 15:07 35.71409 -13.87931 35140 ft 408 kts 215°
2026-05-01 15:08 35.66410 -13.91220 35132 ft 407 kts 215°
2026-05-01 15:08 35.61412 -13.94503 35136 ft 407 kts 215°
2026-05-01 15:09 35.56411 -13.97784 35139 ft 408 kts 215°
2026-05-01 15:09 35.51403 -14.01065 35141 ft 408 kts 215°
2026-05-01 15:10 35.46388 -14.04346 35138 ft 409 kts 215°
2026-05-01 15:10 35.38859 -14.09262 35134 ft 409 kts 215°
2026-05-01 15:11 35.31310 -14.14182 35134 ft 410 kts 215°
2026-05-01 15:12 35.26267 -14.17462 35134 ft 411 kts 215°
2026-05-01 15:12 35.18692 -14.22381 35148 ft 411 kts 215°
2026-05-01 15:14 35.06086 -14.30538 35139 ft 411 kts 215°
2026-05-01 15:14 34.98516 -14.35425 35139 ft 410 kts 215°
2026-05-01 15:15 34.88461 -14.41904 35115 ft 410 kts 215°
2026-05-01 15:16 34.78358 -14.48397 35147 ft 411 kts 215°
2026-05-01 15:18 34.65686 -14.56514 35143 ft 412 kts 215°
2026-05-01 15:19 34.55522 -14.63004 35140 ft 413 kts 214°
2026-05-01 15:19 34.47881 -14.67871 35144 ft 414 kts 214°
2026-05-01 15:20 34.40225 -14.72738 35144 ft 415 kts 214°
2026-05-01 15:21 34.35112 -14.75982 35146 ft 415 kts 214°
2026-05-01 15:21 34.29997 -14.79223 35145 ft 415 kts 214°
2026-05-01 15:22 34.22313 -14.84085 35147 ft 416 kts 214°
2026-05-01 15:22 34.17185 -14.87323 35144 ft 416 kts 214°
2026-05-01 15:23 34.12055 -14.90558 35147 ft 416 kts 214°
2026-05-01 15:23 34.06921 -14.93791 35117 ft 416 kts 214°
2026-05-01 15:24 34.01785 -14.97021 35136 ft 416 kts 213°
2026-05-01 15:24 33.96648 -15.00247 35152 ft 417 kts 213°
2026-05-01 15:25 33.91514 -15.03467 35150 ft 417 kts 213°
2026-05-01 15:25 33.86352 -15.06700 35150 ft 417 kts 213°
2026-05-01 15:26 33.81198 -15.09924 35148 ft 418 kts 213°
2026-05-01 15:26 33.76040 -15.13145 35146 ft 418 kts 213°
2026-05-01 15:27 33.70869 -15.16371 35148 ft 419 kts 213°
2026-05-01 15:28 33.63092 -15.21214 35151 ft 420 kts 213°
2026-05-01 15:28 33.57896 -15.24444 35150 ft 421 kts 213°
2026-05-01 15:29 33.50095 -15.29284 35131 ft 421 kts 213°
2026-05-01 15:30 33.39660 -15.35744 35153 ft 423 kts 213°
2026-05-01 15:31 33.23994 -15.45409 35124 ft 424 kts 212°
2026-05-01 15:32 33.13503 -15.51861 35148 ft 425 kts 212°
2026-05-01 15:34 32.97715 -15.61536 35150 ft 426 kts 212°